Date,TemperatureHighF,TemperatureAvgF,TemperatureLowF,DewpointHighF,DewpointAvgF,DewpointLowF,HumidityHigh,HumidityAvg,HumidityLow,PressureMaxIn,PressureMinIn,WindSpeedMaxMPH,WindSpeedAvgMPH,GustSpeedMaxMPH,PrecipitationSumIn
2013-1-1,32,28,26,19,11,6,65,50,32,29.73,29.65,27,13,31,0.00
2013-1-2,39,31,26,8,3,-2,46,31,17,29.67,29.62,27,17,31,0.00
2013-1-3,37,34,30,6,2,-3,34,25,21,29.74,29.62,24,15,31,0.00
2013-1-4,49,40,30,8,-5,-27,26,16,4,29.80,29.74,20,6,27,0.00
2013-1-5,53,45,35,9,-8,-28,33,12,4,29.83,29.73,9,3,12,0.00
2013-1-6,35,30,27,31,21,-3,95,76,20,29.73,29.51,27,15,30,0.01
2013-1-7,39,32,25,27,20,9,96,67,28,29.64,29.48,20,12,26,0.03
2013-1-8,52,46,40,21,15,1,37,28,17,29.78,29.64,20,12,26,0.00
2013-1-9,56,48,39,29,24,19,51,39,29,29.80,29.64,16,8,23,0.00
2013-1-10,39,28,19,32,24,16,96,88,51,29.64,29.39,30,7,35,0.18
2013-1-11,24,20,16,20,17,13,90,88,79,29.60,29.50,0,0,0,0.00
2013-1-12,27,21,16,18,14,7,89,73,49,29.59,29.49,0,0,0,0.00
2013-1-13,30,22,18,19,12,4,86,65,49,29.60,29.51,13,4,15,0.00
2013-1-14,24,19,15,5,-6,-12,56,34,19,29.70,29.58,33,13,35,0.00
2013-1-15,32,25,17,11,3,-10,46,38,28,29.82,29.71,32,24,37,0.00
2013-1-16,39,33,30,17,14,11,50,45,35,29.87,29.76,35,21,44,0.00
2013-1-17,43,39,36,12,10,8,34,29,25,29.83,29.76,27,18,32,0.00
2013-1-18,47,42,39,14,12,10,32,28,26,29.81,29.76,18,12,20,0.00
2013-1-19,49,42,39,12,9,5,28,25,21,29.83,29.78,15,10,19,0.00
2013-1-20,50,46,42,7,4,-3,20,17,13,29.82,29.72,17,8,17,0.00
2013-1-21,52,46,42,2,-2,-4,15,13,10,29.78,29.71,17,10,21,0.00
2013-1-22,62,52,43,24,5,-14,35,16,6,29.81,29.76,10,4,15,0.00
2013-1-23,57,51,45,33,27,21,61,39,28,29.82,29.76,14,5,24,0.00
2013-1-24,49,45,41,48,42,30,97,89,57,29.82,29.74,10,3,16,0.13
2013-1-25,46,44,42,45,43,41,97,96,95,29.81,29.64,6,2,13,0.79
2013-1-26,44,42,40,43,41,39,97,97,96,29.63,29.56,13,5,19,0.48
2013-1-27,39,33,25,38,32,23,97,96,88,29.62,29.50,26,12,33,0.04
2013-1-28,27,25,23,25,23,21,93,92,91,29.67,29.51,18,9,22,0.00
2013-1-29,50,36,24,30,24,19,90,64,39,29.77,29.66,20,9,27,0.04
2013-1-30,48,41,34,25,22,21,65,49,34,29.88,29.77,27,14,28,0.00
2013-1-31,46,43,40,28,25,21,55,48,40,29.85,29.77,23,14,26,0.00
2013-2-1,59,50,44,28,17,6,42,28,17,29.86,29.79,11,4,16,0.00
2013-2-2,56,51,47,28,18,6,45,29,17,29.87,29.81,6,2,14,0.00
2013-2-3,50,45,42,39,35,26,83,69,44,29.82,29.68,16,5,18,0.02
2013-2-4,50,45,41,34,27,24,73,51,37,29.73,29.67,13,5,18,0.00
2013-2-5,56,47,41,32,25,19,60,42,33,29.71,29.62,9,3,17,0.00
2013-2-6,53,45,40,24,17,3,49,35,16,29.71,29.57,25,6,25,0.00
2013-2-7,52,43,28,30,18,0,89,42,16,29.72,29.53,14,5,21,0.00
2013-2-8,28,25,22,26,23,20,93,92,90,29.51,29.37,24,14,31,0.00
2013-2-9,27,24,20,26,21,17,93,91,89,29.57,29.38,14,7,16,0.00
2013-2-10,29,24,20,27,22,18,93,91,89,29.57,29.51,11,3,11,0.00
2013-2-11,29,25,21,27,22,13,93,86,70,29.70,29.54,9,2,9,0.04
2013-2-12,37,30,22,15,8,4,68,43,27,29.79,29.71,22,10,25,0.01
2013-2-13,49,40,33,18,12,4,37,32,26,29.79,29.74,21,9,25,0.00
2013-2-14,46,43,39,20,18,17,41,37,35,29.80,29.71,26,14,28,0.00
2013-2-15,44,42,39,18,13,5,39,31,20,29.85,29.73,30,22,37,0.00
2013-2-16,52,46,40,14,5,-7,28,19,9,29.84,29.68,22,9,29,0.00
2013-2-17,48,42,37,26,11,6,56,29,22,29.67,29.56,24,10,25,0.00
2013-2-18,53,44,36,34,12,0,74,30,17,29.64,29.56,9,4,14,0.00
2013-2-19,35,28,25,28,20,-6,94,79,16,29.53,29.27,20,8,20,0.00
2013-2-20,27,24,20,25,21,18,93,91,89,29.51,29.20,24,12,24,0.00
2013-2-21,30,26,22,28,24,19,94,92,90,29.61,29.50,9,3,10,0.01
2013-2-22,44,32,24,30,18,13,90,58,38,29.74,29.60,17,7,22,0.11
2013-2-23,47,38,31,26,18,10,74,45,28,29.71,29.53,19,7,19,0.01
2013-2-24,34,31,27,22,5,-4,64,35,21,29.71,29.54,28,13,31,0.00
2013-2-25,48,38,30,14,5,-3,38,26,12,29.74,29.65,17,7,19,0.00
2013-2-26,42,39,36,10,4,-13,29,23,9,29.74,29.59,23,10,25,0.00
2013-2-27,40,36,31,8,3,-2,30,25,18,29.84,29.74,22,13,25,0.00
2013-2-28,45,42,37,6,3,-1,21,20,19,29.92,29.83,24,16,25,0.00
2013-3-1,51,47,43,16,11,6,27,23,21,29.94,29.88,24,15,24,0.00
2013-3-2,66,54,47,24,15,-1,32,23,11,29.92,29.80,14,5,19,0.00
2013-3-3,53,46,37,28,17,7,71,34,18,29.76,29.59,27,14,29,0.00
2013-3-4,52,43,33,39,31,25,94,67,38,29.75,29.56,28,9,29,0.00
2013-3-5,53,44,38,32,26,8,61,50,28,29.74,29.66,16,6,16,0.00
2013-3-6,51,40,31,34,23,4,94,59,16,29.67,29.59,20,11,20,0.00
2013-3-7,36,33,30,35,32,29,96,94,90,29.57,29.47,23,13,29,0.03
2013-3-8,32,27,24,30,26,22,96,93,92,29.53,29.34,17,2,19,0.04
2013-3-9,32,30,27,31,29,26,96,95,94,29.74,29.51,17,3,17,0.24
2013-3-10,46,39,32,30,21,11,93,54,28,29.82,29.75,25,14,25,0.00
2013-3-11,60,49,42,29,16,7,39,26,14,29.82,29.75,19,7,20,0.00
2013-3-12,56,53,48,20,16,8,26,23,18,29.82,29.73,20,13,27,0.00
2013-3-13,63,57,52,22,21,18,28,24,20,29.86,29.80,22,11,24,0.00
2013-3-14,66,60,55,26,22,19,26,23,18,29.85,29.81,26,10,26,0.00
2013-3-15,70,61,51,33,25,12,44,25,18,29.83,29.70,14,4,20,0.00
2013-3-16,64,56,52,31,13,-13,35,19,6,29.68,29.61,19,9,23,0.00
2013-3-17,63,55,50,36,18,7,39,24,15,29.67,29.62,12,6,16,0.00
2013-3-18,62,53,48,37,12,-2,48,21,10,29.70,29.62,16,6,23,0.00
2013-3-19,56,50,46,37,24,10,60,37,20,29.76,29.66,22,9,28,0.00
2013-3-20,58,51,44,32,25,12,45,36,26,29.76,29.64,21,9,28,0.00
2013-3-21,59,50,42,40,28,6,71,46,17,29.62,29.51,17,8,33,0.00
2013-3-22,58,48,42,40,24,11,72,40,22,29.59,29.44,18,7,26,0.00
2013-3-23,56,49,45,39,14,-8,72,28,10,29.69,29.57,20,6,22,0.00
2013-3-24,59,52,45,40,26,12,65,39,20,29.68,29.62,11,2,14,0.00
2013-3-25,64,55,48,39,26,17,56,35,24,29.68,29.64,10,3,13,0.00
2013-3-26,58,50,45,29,15,1,35,25,13,29.67,29.59,18,10,19,0.00
2013-3-27,54,46,42,32,21,2,68,38,16,29.66,29.57,23,12,24,0.00
2013-3-28,60,50,42,39,31,20,73,48,32,29.75,29.66,18,5,26,0.00
2013-3-29,60,54,49,42,29,8,67,40,17,29.79,29.74,10,2,10,0.00
2013-3-30,58,53,48,41,26,2,70,38,13,29.77,29.73,17,6,20,0.00
2013-3-31,49,43,36,39,35,15,95,74,30,29.75,29.67,22,12,31,0.00
2013-4-1,47,40,32,36,27,7,95,66,24,29.71,29.65,17,10,29,0.00
2013-4-2,57,47,35,44,29,20,93,54,27,29.73,29.63,13,5,21,0.00
2013-4-3,62,54,50,39,28,22,52,36,26,29.78,29.73,13,4,13,0.00
2013-4-4,59,54,45,37,24,-3,74,35,9,29.78,29.70,25,9,33,0.00
2013-4-5,53,45,41,40,32,23,85,62,31,29.70,29.65,25,16,33,0.00
2013-4-6,62,51,42,41,31,18,73,48,23,29.69,29.63,23,8,27,0.00
2013-4-7,65,54,46,47,29,14,63,40,20,29.65,29.52,13,6,20,0.00
2013-4-8,44,34,30,36,32,28,95,91,69,29.50,29.28,38,12,38,0.04
2013-4-9,47,37,28,34,25,11,95,67,28,29.65,29.41,10,2,13,0.03
2013-4-10,56,46,39,26,15,8,41,29,18,29.74,29.65,15,6,23,0.00
2013-4-11,60,52,47,38,21,8,62,30,18,29.73,29.53,14,7,23,0.00
2013-4-12,58,54,49,28,20,14,38,27,22,29.63,29.50,16,5,25,0.00
2013-4-13,60,54,47,33,26,19,49,34,25,29.63,29.54,19,9,23,0.00
2013-4-14,56,48,41,40,27,-20,74,48,5,29.54,29.46,22,15,27,0.00
2013-4-15,46,38,31,37,33,30,95,83,53,29.50,29.45,29,19,30,0.00
2013-4-16,36,30,25,30,27,23,95,88,73,29.52,29.39,29,17,39,0.00
2013-4-17,45,36,27,26,12,1,94,46,18,29.73,29.53,19,6,25,0.00
2013-4-18,46,41,36,12,6,0,34,24,17,29.81,29.69,31,13,34,0.00
2013-4-19,62,50,42,17,7,0,24,17,12,29.80,29.71,23,11,30,0.00
2013-4-20,64,57,50,28,16,8,27,19,16,29.75,29.65,11,4,17,0.00
2013-4-21,70,62,54,34,23,9,34,23,15,29.76,29.71,6,2,13,0.00
2013-4-22,68,60,52,37,16,-14,41,20,5,29.74,29.60,12,4,18,0.00
2013-4-23,60,55,51,34,23,16,49,28,22,29.66,29.58,16,7,24,0.00
2013-4-24,60,54,37,43,27,14,90,39,18,29.65,29.55,10,4,18,0.00
2013-4-25,59,44,33,42,33,19,96,71,27,29.76,29.53,15,7,20,0.01
2013-4-26,64,58,52,30,21,14,31,24,19,29.86,29.75,6,2,10,0.00
2013-4-27,69,62,55,36,22,12,34,22,11,29.86,29.77,11,3,12,0.00
2013-4-28,72,64,58,29,19,9,25,18,9,29.78,29.67,12,3,18,0.00
2013-4-29,72,65,58,32,18,8,28,17,10,29.68,29.59,16,7,18,0.00
2013-4-30,66,59,54,42,24,6,52,29,12,29.60,29.56,17,11,21,0.00
2013-5-1,63,58,54,27,18,0,35,21,9,29.82,29.59,23,12,29,0.00
2013-5-2,58,54,47,4,-1,-4,13,10,9,29.85,29.78,25,15,29,0.00
2013-5-3,65,59,54,21,7,-5,23,13,8,29.80,29.64,22,10,25,0.00
2013-5-4,64,56,44,30,13,2,37,20,12,29.62,29.50,27,8,27,0.00
2013-5-5,51,44,36,40,26,9,95,55,22,29.58,29.49,21,12,27,0.00
2013-5-6,43,40,38,42,39,37,97,97,96,29.62,29.53,21,12,31,0.34
2013-5-7,39,37,34,38,36,33,98,97,97,29.67,29.57,23,15,29,0.32
2013-5-8,50,41,34,45,38,31,98,92,66,29.71,29.65,10,4,16,0.01
2013-5-9,57,49,38,46,37,29,91,64,43,29.74,29.67,12,4,15,0.00
2013-5-10,63,56,49,48,36,31,65,49,31,29.83,29.73,11,4,16,0.00
2013-5-11,68,63,57,39,31,26,50,31,22,29.88,29.81,22,8,24,0.00
2013-5-12,72,67,62,31,27,25,28,22,18,29.89,29.81,14,5,20,0.00
2013-5-13,76,70,65,34,27,22,27,21,16,29.85,29.77,6,3,16,0.00
2013-5-14,72,64,55,28,22,3,27,20,12,29.79,29.70,23,11,29,0.00
2013-5-15,64,57,51,41,26,6,48,32,15,29.74,29.69,22,13,25,0.00
2013-5-16,66,59,51,33,22,-4,41,26,9,29.70,29.60,17,11,22,0.00
2013-5-17,56,50,44,44,36,26,84,59,38,29.65,29.59,21,14,27,0.00
2013-5-18,64,53,45,46,37,27,73,56,34,29.71,29.63,22,10,29,0.00
2013-5-19,71,61,52,49,33,13,58,35,18,29.70,29.65,16,4,17,0.00
2013-5-20,70,62,58,39,30,23,45,31,19,29.74,29.69,16,6,23,0.00
2013-5-21,70,63,56,43,34,26,59,34,23,29.73,29.63,15,6,19,0.00
2013-5-22,65,56,48,35,20,-16,38,26,6,29.62,29.51,24,14,30,0.00
2013-5-23,59,51,46,30,0,-29,49,15,3,29.62,29.50,22,14,26,0.00
2013-5-24,63,55,49,37,2,-29,41,16,3,29.67,29.58,13,5,16,0.00
2013-5-25,63,54,46,32,6,-19,38,16,5,29.68,29.62,15,8,16,0.00
2013-5-26,61,53,47,38,16,-22,46,27,4,29.71,29.63,21,10,24,0.00
2013-5-27,67,57,48,43,32,25,58,40,21,29.65,29.60,18,8,26,0.00
2013-5-28,60,54,50,45,38,31,69,54,42,29.60,29.52,20,12,26,0.00
2013-5-29,73,63,51,44,36,29,54,38,23,29.60,29.54,23,8,23,0.00
2013-5-30,74,66,58,49,29,-4,53,29,6,29.67,29.56,17,6,22,0.00
2013-5-31,77,70,66,42,28,8,34,23,10,29.70,29.63,16,5,16,0.00
2013-6-1,77,71,64,48,36,27,57,30,16,29.70,29.66,20,7,23,0.00
2013-6-2,77,69,59,42,27,20,49,22,16,29.68,29.58,14,5,16,0.00
2013-6-3,74,65,59,44,29,11,39,27,15,29.65,29.57,8,4,12,0.00
2013-6-4,73,65,56,40,13,-12,42,15,5,29.70,29.63,10,3,13,0.00
2013-6-5,77,69,62,42,19,0,31,16,8,29.73,29.68,8,3,11,0.00
2013-6-6,80,72,65,40,19,2,27,14,7,29.71,29.67,9,3,14,0.00
2013-6-7,81,75,69,42,20,-4,27,13,5,29.69,29.64,13,3,14,0.00
2013-6-8,81,76,68,42,20,-9,25,13,4,29.71,29.62,15,3,15,0.00
2013-6-9,78,70,60,25,9,-11,18,10,4,29.71,29.67,18,6,24,0.00
2013-6-10,72,64,58,34,17,-1,32,17,9,29.71,29.65,16,8,20,0.00
2013-6-11,80,72,61,33,23,14,22,16,11,29.76,29.69,11,4,16,0.00
2013-6-12,77,69,61,40,26,2,34,20,9,29.77,29.73,20,6,20,0.00
2013-6-13,76,67,61,31,20,0,24,17,8,29.77,29.70,12,6,17,0.00
2013-6-14,76,68,60,36,15,-10,28,14,5,29.70,29.65,12,5,14,0.00
2013-6-15,73,64,58,30,3,-22,22,10,3,29.71,29.64,14,7,20,0.00
2013-6-16,74,66,59,34,6,-21,26,10,3,29.76,29.70,13,7,14,0.00
2013-6-17,76,68,62,34,16,2,28,14,8,29.75,29.71,12,4,15,0.00
2013-6-18,74,66,59,34,20,7,27,17,11,29.70,29.63,14,7,19,0.00
2013-6-19,72,64,57,27,12,-16,25,14,4,29.64,29.57,19,10,24,0.00
2013-6-20,74,65,58,38,15,-11,37,16,5,29.65,29.57,13,7,22,0.00
2013-6-21,72,65,57,37,17,-8,33,17,5,29.68,29.61,15,7,16,0.00
2013-6-22,74,64,57,37,21,-7,31,20,6,29.68,29.62,13,7,17,0.00
2013-6-23,69,62,55,39,26,5,43,28,11,29.64,29.57,22,10,25,0.00
2013-6-24,64,57,52,47,32,12,77,45,17,29.66,29.57,18,13,28,0.00
2013-6-25,75,65,53,50,43,24,74,46,26,29.76,29.66,14,6,21,0.00
2013-6-26,81,73,65,51,45,39,49,38,31,29.84,29.76,9,2,13,0.00
2013-6-27,83,75,68,46,34,5,35,24,7,29.89,29.84,14,3,17,0.00
2013-6-28,87,79,71,39,21,-6,22,13,4,29.87,29.79,15,6,17,0.00
2013-6-29,92,82,75,45,35,26,26,19,13,29.79,29.73,12,4,15,0.00
2013-6-30,93,83,76,48,35,26,27,18,13,29.76,29.71,10,3,17,0.00
2013-7-1,83,76,70,48,41,36,41,28,22,29.78,29.74,15,6,15,0.00
2013-7-2,84,75,71,43,40,36,35,28,21,29.84,29.77,14,5,17,0.00
2013-7-3,81,74,70,42,37,33,28,26,23,29.79,29.70,16,6,20,0.00
2013-7-4,85,77,71,43,36,29,28,23,20,29.71,29.66,14,5,16,0.00
2013-7-5,85,77,71,53,35,20,44,24,13,29.70,29.65,9,4,16,0.00
2013-7-6,84,74,70,46,39,28,39,29,20,29.68,29.63,4,1,9,0.00
2013-7-7,84,76,70,45,39,28,35,26,20,29.73,29.65,7,3,15,0.00
2013-7-8,85,76,71,38,30,23,26,18,15,29.83,29.73,13,4,17,0.00
2013-7-9,83,77,73,53,40,28,44,27,18,29.88,29.81,11,2,13,0.00
2013-7-10,81,73,67,53,42,35,51,33,21,29.83,29.75,10,3,13,0.00
2013-7-11,68,64,61,54,48,35,71,56,31,29.77,29.72,12,3,12,0.05
2013-7-12,74,66,61,55,50,47,63,55,44,29.76,29.72,11,1,12,0.00
2013-7-13,77,71,65,53,49,45,57,47,37,29.79,29.74,11,1,11,0.00
2013-7-14,81,73,68,48,46,44,46,38,29,29.79,29.72,7,2,13,0.00
2013-7-15,78,70,64,46,40,29,40,33,26,29.74,29.67,18,5,19,0.00
2013-7-16,75,67,63,30,22,-4,27,19,6,29.79,29.68,17,10,21,0.00
2013-7-17,83,72,63,34,10,-14,20,10,3,29.83,29.77,11,3,18,0.00
2013-7-18,85,78,71,35,10,-14,19,9,3,29.81,29.74,13,2,15,0.00
2013-7-19,84,77,70,50,23,3,50,15,6,29.76,29.70,8,2,10,0.00
2013-7-20,75,67,62,61,53,17,91,67,12,29.73,29.68,13,5,18,0.79
2013-7-21,66,63,59,61,58,52,95,84,59,29.76,29.68,15,4,15,0.75
2013-7-22,66,62,59,61,57,53,91,82,70,29.80,29.74,6,1,7,0.19
2013-7-23,74,67,61,59,56,53,81,69,57,29.82,29.76,16,3,16,0.00
2013-7-24,77,71,65,57,52,40,65,52,37,29.80,29.74,10,2,18,0.00
2013-7-25,79,73,67,54,44,33,48,36,27,29.85,29.76,7,2,12,0.00
2013-7-26,76,71,67,54,48,34,57,44,27,29.88,29.83,11,2,11,0.00
2013-7-27,78,70,65,51,45,39,58,41,33,29.85,29.73,12,3,21,0.00
2013-7-28,73,66,60,42,34,28,44,31,24,29.74,29.68,16,8,20,0.00
2013-7-29,78,69,61,46,34,19,38,28,17,29.82,29.71,11,5,11,0.00
2013-7-30,78,70,63,52,45,40,58,42,31,29.87,29.82,10,2,11,0.00
2013-7-31,79,71,65,48,19,-6,53,18,5,29.86,29.79,13,6,14,0.00
2013-8-1,78,69,65,38,0,-36,31,9,1,29.80,29.72,10,4,11,0.00
2013-8-2,79,71,64,38,12,-12,30,12,4,29.76,29.69,10,4,13,0.00
2013-8-3,80,72,64,46,13,-12,38,13,4,29.77,29.71,7,2,11,0.00
2013-8-4,80,73,67,36,12,-11,24,11,4,29.79,29.75,9,4,11,0.00
2013-8-5,79,70,67,37,17,-5,22,14,5,29.79,29.76,7,3,15,0.00
2013-8-6,77,69,63,34,18,-2,27,15,6,29.81,29.74,12,6,14,0.00
2013-8-7,74,67,61,31,21,9,28,18,10,29.81,29.76,13,9,21,0.00
2013-8-8,74,66,60,32,25,20,33,22,14,29.77,29.70,20,10,23,0.00
2013-8-9,73,64,58,33,21,5,38,20,11,29.73,29.68,17,6,17,0.00
2013-8-10,74,65,58,42,16,1,39,17,8,29.76,29.71,12,3,12,0.00
2013-8-11,77,67,60,44,18,-1,41,17,8,29.75,29.71,9,2,11,0.00
2013-8-12,78,69,62,39,28,12,29,22,13,29.77,29.72,14,3,14,0.00
2013-8-13,77,71,66,44,30,19,42,22,14,29.79,29.74,4,1,16,0.00
2013-8-14,81,74,68,44,34,19,39,24,14,29.79,29.74,9,3,11,0.00
2013-8-15,83,74,70,47,39,27,43,29,20,29.81,29.76,9,3,15,0.00
2013-8-16,84,76,70,49,45,37,44,34,19,29.83,29.79,11,4,16,0.00
2013-8-17,85,78,71,48,40,32,35,27,22,29.82,29.73,11,2,16,0.00
2013-8-18,83,76,68,52,44,34,42,33,23,29.78,29.73,12,4,15,0.00
2013-8-19,79,71,66,52,47,38,56,42,30,29.80,29.74,18,6,20,0.00
2013-8-20,83,74,67,38,31,14,31,21,12,29.77,29.73,13,4,14,0.00
2013-8-21,84,75,69,45,38,35,31,27,18,29.80,29.75,10,2,14,0.00
2013-8-22,81,74,68,58,41,36,70,31,23,29.80,29.73,11,3,15,0.00
2013-8-23,77,70,66,57,46,35,66,42,30,29.76,29.67,12,4,16,0.42
2013-8-24,75,68,61,60,46,33,82,49,25,29.76,29.69,11,3,17,0.00
2013-8-25,69,64,59,60,51,26,95,67,22,29.77,29.72,12,3,17,0.27
2013-8-26,64,60,57,58,57,56,96,91,78,29.78,29.72,14,4,14,0.36
2013-8-27,71,65,60,62,57,54,91,77,62,29.74,29.69,6,4,14,0.00
2013-8-28,75,69,61,59,54,45,80,59,45,29.80,29.69,8,3,13,0.41
2013-8-29,68,64,61,61,58,55,94,82,63,29.85,29.79,18,8,23,0.14
2013-8-30,72,64,60,62,60,57,95,85,65,29.87,29.81,10,4,16,0.00
2013-8-31,76,66,62,62,59,51,95,78,62,29.84,29.76,10,3,14,0.00
2013-9-1,78,69,63,57,50,44,66,51,41,29.79,29.74,12,4,16,0.00
2013-9-2,76,68,60,57,50,44,80,53,41,29.79,29.74,10,2,14,0.33
2013-9-3,76,71,67,57,51,44,61,50,42,29.81,29.75,4,2,11,0.00
2013-9-4,76,70,66,56,53,49,63,54,43,29.83,29.77,13,3,19,0.00
2013-9-5,77,71,67,57,50,46,64,48,40,29.82,29.77,6,1,10,0.04
2013-9-6,79,72,64,55,50,0,64,46,38,29.81,29.76,18,2,23,0.01
2013-9-7,74,65,55,62,54,49,90,68,49,29.79,29.74,12,4,15,1.38
2013-9-8,75,67,61,55,51,45,76,58,34,29.74,29.67,10,2,10,1.38
2013-9-9,73,66,61,52,46,40,68,49,35,29.68,29.61,13,4,20,0.00
2013-9-10,70,63,57,56,46,32,94,55,34,29.74,29.65,10,4,14,0.00
2013-9-11,73,65,60,46,27,14,51,24,16,29.77,29.73,12,3,14,0.00
2013-9-12,75,67,62,44,34,26,40,29,25,29.76,29.70,8,2,11,0.00
2013-9-13,78,70,64,39,32,25,32,25,18,29.71,29.59,6,2,12,0.00
2013-9-14,78,72,68,39,36,31,32,27,23,29.64,29.59,10,2,14,0.00
2013-9-15,77,72,69,41,37,30,33,28,22,29.70,29.63,11,3,13,0.00
2013-9-16,81,72,65,45,37,31,38,28,20,29.72,29.66,14,3,14,0.00
2013-9-17,75,67,60,36,26,-10,38,22,5,29.68,29.59,14,6,19,0.00
2013-9-18,72,65,60,42,18,-4,40,18,7,29.60,29.55,14,5,15,0.00
2013-9-19,71,66,62,28,26,22,25,22,19,29.65,29.58,13,7,17,0.00
2013-9-20,74,66,58,46,30,12,56,27,14,29.67,29.62,10,3,13,0.00
2013-9-21,70,60,47,43,20,-8,83,31,6,29.65,29.53,31,8,32,0.00
2013-9-22,62,50,39,43,37,29,96,66,31,29.60,29.47,33,12,36,0.00
2013-9-23,65,59,54,29,26,23,39,28,22,29.73,29.59,25,14,28,0.00
2013-9-24,73,62,54,42,29,22,58,30,17,29.74,29.65,13,4,18,0.00
2013-9-25,60,54,48,38,25,2,56,34,14,29.64,29.42,32,17,39,0.00
2013-9-26,49,44,40,39,28,4,94,58,17,29.57,29.40,27,14,33,0.00
2013-9-27,54,48,40,37,21,15,92,38,22,29.73,29.58,21,10,26,0.00
2013-9-28,61,54,48,20,16,10,28,22,16,29.80,29.72,27,11,27,0.00
2013-9-29,72,63,55,26,15,2,25,16,10,29.82,29.76,11,2,12,0.00
2013-9-30,73,65,59,27,15,-3,23,15,7,29.78,29.68,11,2,11,0.00
2013-10-1,70,62,56,36,21,3,35,21,10,29.72,29.67,10,6,14,0.00
2013-10-2,66,59,54,44,24,-4,47,29,8,29.70,29.64,12,6,18,0.00
2013-10-3,60,55,51,36,20,-8,51,28,8,29.65,29.55,19,11,25,0.00
2013-10-4,55,51,46,27,12,7,35,22,17,29.77,29.60,24,15,29,0.00
2013-10-5,55,50,45,12,9,5,24,19,13,29.85,29.76,30,18,33,0.00
2013-10-6,62,56,51,13,10,3,21,16,11,29.82,29.77,29,14,33,0.00
2013-10-7,66,59,52,28,10,0,39,15,10,29.77,29.68,13,5,16,0.00
2013-10-8,61,52,39,41,21,4,94,35,14,29.68,29.50,17,8,22,0.00
2013-10-9,38,36,33,36,35,32,97,96,94,29.48,29.36,27,17,37,0.98
2013-10-10,45,37,31,45,34,26,100,90,53,29.66,29.40,24,8,33,0.42
2013-10-11,52,47,43,32,28,23,53,48,44,29.70,29.65,21,9,21,0.00
2013-10-12,60,51,46,44,32,26,73,48,33,29.68,29.62,13,4,16,0.00
2013-10-13,54,48,44,37,25,-5,62,43,10,29.70,29.62,17,10,22,0.00
2013-10-14,54,49,46,26,23,20,40,35,31,29.74,29.69,25,12,25,0.00
2013-10-15,56,51,47,25,22,19,38,32,28,29.73,29.66,14,7,15,0.00
2013-10-16,62,52,45,22,18,11,39,27,15,29.79,29.72,24,8,25,0.00
2013-10-17,63,55,50,23,18,14,31,24,18,29.76,29.68,10,3,10,0.00
2013-10-18,59,55,52,18,16,14,24,21,18,29.76,29.69,19,11,26,0.00
2013-10-19,66,58,53,30,16,6,31,20,9,29.79,29.74,22,8,23,0.00
2013-10-20,68,61,56,23,6,-23,24,12,3,29.76,29.67,10,2,15,0.00
2013-10-21,64,60,56,13,1,-21,17,10,3,29.74,29.69,10,5,15,0.00
2013-10-22,62,58,56,17,13,10,19,17,15,29.75,29.69,12,6,15,0.00
2013-10-23,66,58,54,22,17,13,22,20,16,29.69,29.62,9,4,12,0.00
2013-10-24,62,58,55,24,18,12,28,21,17,29.75,29.64,12,4,13,0.00
2013-10-25,64,59,56,20,18,14,23,20,17,29.83,29.75,15,6,16,0.00
2013-10-26,62,59,56,26,21,17,27,23,20,29.84,29.77,13,7,19,0.00
2013-10-27,64,56,43,32,24,18,58,31,21,29.77,29.50,24,8,29,0.00
2013-10-28,42,39,35,42,38,33,100,98,69,29.53,29.45,32,20,38,0.42
2013-10-29,38,35,31,38,35,31,100,99,99,29.61,29.51,21,11,28,0.31
2013-10-30,46,39,32,32,28,24,100,68,45,29.70,29.59,16,8,21,0.01
2013-10-31,53,46,40,20,16,11,40,29,22,29.77,29.71,19,12,26,0.00
2013-11-1,54,50,46,23,19,10,35,29,22,29.82,29.74,22,16,27,0.00
2013-11-2,60,52,46,31,19,7,43,28,17,29.76,29.62,13,5,15,0.00
2013-11-3,54,48,43,34,17,5,53,30,18,29.62,29.51,16,9,25,0.00
2013-11-4,46,41,36,35,29,16,92,65,30,29.56,29.45,16,8,23,0.00
2013-11-5,47,41,37,23,12,0,52,32,18,29.77,29.56,26,14,30,0.00
2013-11-6,50,45,40,10,-2,-10,20,14,8,29.87,29.78,25,18,27,0.00
2013-11-7,59,54,48,7,-3,-15,13,10,6,29.84,29.77,18,7,19,0.00
2013-11-8,65,58,53,18,10,2,22,15,11,29.76,29.69,6,1,11,0.00
2013-11-9,63,56,52,11,2,-16,18,12,5,29.79,29.71,6,2,11,0.00
2013-11-10,64,56,50,21,11,5,32,17,13,29.81,29.76,17,5,22,0.00
2013-11-11,60,54,49,33,28,17,44,37,27,29.84,29.76,19,11,22,0.00
2013-11-12,63,59,55,30,24,18,31,26,20,29.91,29.84,16,8,21,0.00
2013-11-13,63,58,55,31,26,20,38,29,22,29.87,29.75,12,7,17,0.00
2013-11-14,66,57,50,30,25,18,40,29,20,29.76,29.57,13,8,16,0.00
2013-11-15,51,44,36,39,32,23,100,68,34,29.55,29.34,22,12,24,0.00
2013-11-16,37,35,33,37,35,33,100,100,100,29.55,29.43,17,10,20,0.00
2013-11-17,51,42,34,38,34,31,100,74,57,29.72,29.56,16,8,17,0.00
2013-11-18,54,46,38,43,36,28,99,70,47,29.77,29.69,9,4,12,0.00
2013-11-19,59,51,44,28,18,8,53,29,15,29.70,29.60,15,6,20,0.00
2013-11-20,48,44,41,42,35,21,100,75,35,29.61,29.55,25,13,25,0.03
2013-11-21,43,40,37,43,40,37,100,100,99,29.55,29.51,19,10,27,0.23
2013-11-22,37,34,31,37,34,31,99,99,99,29.56,29.48,11,2,12,0.34
2013-11-23,35,32,30,35,32,30,100,99,99,29.67,29.56,9,3,12,0.01
2013-11-24,41,34,31,38,32,29,100,93,66,29.77,29.67,25,7,25,0.01
2013-11-25,46,39,33,30,26,21,90,62,37,29.83,29.75,27,16,32,0.00
2013-11-26,46,42,40,28,25,22,61,50,40,29.85,29.76,24,15,28,0.00
2013-11-27,48,40,38,30,26,22,69,57,40,29.75,29.61,15,9,20,0.00
2013-11-28,49,42,38,37,27,21,86,57,35,29.70,29.59,13,4,16,0.00
2013-11-29,46,42,40,36,30,24,85,63,50,29.81,29.70,9,2,12,0.00
2013-11-30,49,45,43,37,31,28,77,59,49,29.84,29.75,11,6,13,0.00
2013-12-1,49,46,43,26,22,2,50,39,14,29.87,29.82,22,15,23,0.00
2013-12-2,60,54,49,16,8,-1,20,15,11,29.82,29.62,16,6,18,0.00
2013-12-3,51,44,37,39,23,6,100,52,20,29.60,29.38,23,15,29,0.21
2013-12-4,38,31,26,38,30,25,100,95,74,29.50,29.34,32,8,39,0.44
2013-12-5,28,25,22,26,24,20,98,93,91,29.60,29.47,16,6,16,0.01
2013-12-6,32,26,23,26,23,20,93,90,76,29.65,29.59,11,4,18,0.02
2013-12-7,32,28,24,32,27,22,100,96,92,29.60,29.47,27,8,28,0.01
2013-12-8,30,25,22,30,24,19,100,94,87,29.65,29.56,0,0,0,0.02
2013-12-9,24,22,17,19,4,-11,88,51,21,29.80,29.65,16,5,17,0.00
2013-12-10,40,34,22,-10,-14,-18,20,12,9,29.78,29.70,16,12,25,0.01
2013-12-11,43,40,36,3,-5,-18,21,15,7,29.77,29.71,23,12,23,0.02
2013-12-12,48,41,36,27,12,1,59,32,22,29.78,29.72,15,6,21,0.03
2013-12-13,52,44,38,10,7,1,28,22,16,29.81,29.71,15,6,23,0.00
2013-12-14,42,39,36,12,10,8,36,31,27,29.90,29.79,26,17,33,0.00
2013-12-15,51,45,38,15,8,2,28,22,14,29.89,29.83,25,18,31,0.00
2013-12-16,58,54,49,16,14,11,25,21,17,29.89,29.83,23,17,24,0.00
2013-12-17,62,56,52,18,14,4,22,18,11,29.88,29.79,20,10,22,0.00
2013-12-18,60,52,38,20,12,-2,47,22,8,29.77,29.48,18,6,19,0.00
2013-12-19,35,31,26,32,30,25,100,98,73,29.45,29.30,15,7,28,0.23
2013-12-20,39,33,28,34,28,17,100,83,46,29.51,29.33,5,2,9,0.11
2013-12-21,51,41,32,37,23,14,72,50,35,29.67,29.49,20,6,23,0.00
2013-12-22,46,41,38,25,23,22,57,50,37,29.84,29.66,21,14,28,0.00
2013-12-23,43,40,38,23,22,20,53,47,40,29.92,29.85,31,20,31,0.00
2013-12-24,53,48,43,24,20,13,43,33,23,29.87,29.80,22,14,28,0.00
2013-12-25,46,44,41,24,13,6,45,29,20,29.87,29.80,31,17,31,0.00
2013-12-26,45,42,41,5,2,-2,21,18,14,29.83,29.74,29,19,31,0.00
2013-12-27,52,47,42,7,2,-4,18,15,13,29.84,29.77,21,12,24,0.00
2013-12-28,53,48,44,8,4,-5,19,16,12,29.76,29.62,14,4,21,0.00
2013-12-29,44,41,37,9,3,-6,27,20,14,29.74,29.64,28,18,32,0.00
2013-12-30,60,49,39,8,-7,-22,16,10,5,29.87,29.76,19,7,28,0.00
2013-12-31,60,54,49,14,3,-13,20,13,6,29.85,29.75,9,2,14,0.00
2014-1-1,52,49,47,17,8,1,29,19,12,29.81,29.75,21,12,25,0.00
2014-1-2,57,51,46,20,17,15,30,26,22,29.81,29.73,15,6,16,0.00